TimeEST,TemperatureF,Dew PointF,Humidity,Sea Level PressureIn,VisibilityMPH,Wind Direction,Wind SpeedMPH,Gust SpeedMPH,PrecipitationIn,Events,Conditions,WindDirDegrees,DateUTC
12:02 AM,44.6,33.8,66,30.04,10.0,West,8.1,17.3,N/A,,Overcast,280,2011-11-10 05:02:00
12:53 AM,43.0,33.1,68,30.04,10.0,West,8.1,-,N/A,,Overcast,280,2011-11-10 05:53:00
1:01 AM,42.8,33.8,70,30.04,10.0,WNW,9.2,-,N/A,,Overcast,290,2011-11-10 06:01:00
1:53 AM,41.0,32.0,70,30.05,10.0,West,10.4,-,N/A,,Mostly Cloudy,270,2011-11-10 06:53:00
2:37 AM,39.2,33.8,81,30.06,10.0,WNW,9.2,-,N/A,,Overcast,300,2011-11-10 07:37:00
2:53 AM,39.0,34.0,82,30.06,10.0,West,8.1,-,N/A,,Overcast,270,2011-11-10 07:53:00
3:06 AM,39.2,33.8,81,30.05,10.0,West,6.9,-,N/A,,Overcast,260,2011-11-10 08:06:00
3:53 AM,39.0,34.0,82,30.05,10.0,West,6.9,-,N/A,,Mostly Cloudy,270,2011-11-10 08:53:00
4:53 AM,39.0,34.0,82,30.05,10.0,West,6.9,-,N/A,,Overcast,260,2011-11-10 09:53:00
5:53 AM,39.0,34.0,82,30.05,10.0,West,6.9,-,N/A,,Overcast,260,2011-11-10 10:53:00
6:33 AM,37.4,32.0,81,30.05,10.0,WSW,4.6,-,N/A,,Partly Cloudy,250,2011-11-10 11:33:00
6:53 AM,36.0,32.0,86,30.06,10.0,WSW,4.6,-,N/A,,Clear,240,2011-11-10 11:53:00
8:53 AM,39.9,33.1,77,30.07,10.0,SW,10.4,-,N/A,,Clear,220,2011-11-10 13:53:00
9:53 AM,41.0,33.1,73,30.05,10.0,SW,10.4,-,N/A,,Clear,230,2011-11-10 14:53:00
10:53 AM,46.0,33.1,61,30.03,10.0,SSW,11.5,-,N/A,,Partly Cloudy,210,2011-11-10 15:53:00
11:53 AM,48.0,30.9,52,30.00,10.0,SW,12.7,21.9,N/A,,Partly Cloudy,230,2011-11-10 16:53:00
12:53 PM,46.9,30.0,52,29.97,10.0,WSW,17.3,20.7,N/A,,Scattered Clouds,250,2011-11-10 17:53:00
1:53 PM,46.9,30.0,52,29.96,10.0,West,12.7,-,0.00,,Overcast,260,2011-11-10 18:53:00
2:53 PM,45.0,30.0,56,29.95,10.0,West,10.4,24.2,N/A,,Overcast,260,2011-11-10 19:53:00
3:53 PM,44.1,26.1,49,29.96,10.0,West,10.4,23.0,N/A,,Overcast,260,2011-11-10 20:53:00
4:53 PM,44.1,21.9,42,29.96,10.0,WNW,12.7,21.9,N/A,,Mostly Cloudy,290,2011-11-10 21:53:00
5:53 PM,39.9,25.0,55,29.98,10.0,WNW,6.9,-,N/A,,Clear,290,2011-11-10 22:53:00
6:53 PM,37.9,25.0,60,29.99,10.0,WNW,5.8,-,N/A,,Clear,290,2011-11-10 23:53:00
7:53 PM,36.0,24.1,62,30.00,10.0,West,6.9,-,N/A,,Clear,280,2011-11-11 00:53:00
8:53 PM,36.0,25.0,64,30.00,10.0,West,11.5,19.6,0.00,Snow,Light Snow,280,2011-11-11 01:53:00
9:53 PM,33.1,25.0,72,30.01,10.0,West,6.9,-,0.00,,Clear,260,2011-11-11 02:53:00
10:53 PM,33.1,26.1,75,30.01,10.0,West,10.4,-,N/A,,Clear,270,2011-11-11 03:53:00
11:53 PM,30.9,26.1,82,30.01,10.0,WSW,6.9,-,N/A,,Clear,250,2011-11-11 04:53:00